Regional Weather Roundup
Issued by NWS

Home | Current Version | Previous Version | Text Only | Print | Product List | Glossary Off
Versions: 1 2 3 4 5 6 7 8 9 10 11 12 13 14 15 16 17 18 19 20 21 22 23 24 25 26 27 28

000
ASUS45 KSLC 151710
RWRUT

UTAH REGIONAL WEATHER ROUNDUP
NATIONAL WEATHER SERVICE SALT LAKE CITY UT
1000 AM MST MON JAN 15 2018

UTZ001>011-023>025-151800-

NORTHERN UTAH

CITY           SKY/WX    TMP DP  RH WIND       PRES   REMARKS
BRIGHAM CITY   SUNNY     33  29  88 CALM      30.36R
HILL AFB       SUNNY     34  24  65 E14       30.33R WCI  25
LOGAN          SUNNY     31  25  78 CALM      30.37R HAZE
OGDEN          SUNNY     35  27  72 W5        30.33R WCI  31
SALT LAKE CITY MOSUNNY   38  30  73 CALM      30.34R
TOOELE VALLEY  SUNNY     34  32  93 SW6       30.34S WCI  29
WENDOVER       MOSUNNY   32  26  78 CALM      30.35R
HEBER CITY       N/A     28  25  86 CALM      30.34S
WEST JORDAN    SUNNY     35  31  87 CALM      30.34R

$$

UTZ011>015-024>027-151800-

CENTRAL/NORTHEAST UTAH

CITY           SKY/WX    TMP DP  RH WIND       PRES   REMARKS
PROVO AIRPORT  SUNNY     36  32  85 CALM      30.36S
MOAB/CANYONLAN SUNNY     37  30  75 CALM      30.29S
DELTA          MOSUNNY   32  30  93 NE5       30.32F WCI  27
PRICE          SUNNY     34  27  75 VRB3      30.28R
ROOSEVELT      SUNNY     28  21  74 CALM      30.39R
VERNAL         SUNNY     31  23  72 CALM      30.36R

$$

UTZ013>016-019>022-027-151800-

SOUTHERN UTAH

CITY           SKY/WX    TMP DP  RH WIND       PRES   REMARKS
BRYCE CANYON   MOSUNNY   31  25  78 N3        30.30R
CEDAR CITY     PTSUNNY   32  29  88 CALM      30.28R
MILFORD        MOSUNNY   31  28  89 E7        30.30S WCI  24
ST GEORGE      SUNNY     41  35  79 CALM      30.25R
HANKSVILLE     MOSUNNY   30  21  69 CALM      30.35R
KANAB          SUNNY     41  30  65 NE2       30.28R
BLANDING         N/A     40  27  59 CALM      30.34R

$$

REGIONAL REPORTS     COLORADO/ARIZONA

CITY           SKY/WX    TMP DP  RH WIND       PRES   REMARKS
CRAIG, CO      CLOUDY    17  12  80 SE5       30.37R WCI  10
GRAND JUNCTION SUNNY     32  25  75 SE8       30.31S WCI  25
RIFLE, CO      SUNNY     28  22  78 CALM      30.34R
MONTROSE, CO   SUNNY     32  20  61 E5        30.33F WCI  27
CORTEZ, CO     SUNNY     34  20  56 E3        30.26F
COLORADO CITY    N/A     39  34  81 CALM      30.26S
PAGE, AZ       MOSUNNY   41  30  65 NE6       30.26S
GRAND CANYON   PTSUNNY   40  30  67 CALM      30.26S
KINGMAN, AZ    SUNNY     51  33  50 CALM      30.19R
FLAGSTAFF, AZ  MOSUNNY   44  27  51 E3        30.26S

$$

REGIONAL REPORTS    NEVADA/IDAHO/WYOMING

CITY           SKY/WX    TMP DP  RH WIND       PRES   REMARKS
LAS VEGAS, NV  MOSUNNY   54  38  54 CALM      30.20R
ELY, NY        PTSUNNY   29  23  78 CALM      30.30R
ELKO, NV       MOSUNNY   31  26  82 CALM      30.30R
POCATELLO, ID  MOSUNNY   28  26  92 CALM      30.38R
BURLEY, ID     SUNNY     34  28  79 NE8G23    30.33R WCI  27
FORT BRIDGER,    N/A     31  20  66 SE5       30.37R WCI  26
EVANSTON, WY   SUNNY     28  20  71 NE5       30.33R WCI  23
ROCK SPRINGS,  CLOUDY    24  20  84 E18       30.39R WCI  10

$$




USA.gov is the U.S. government's official web portal to all federal, state and local government web resources and services.